COSMOS 1275 DEB, 13472

Orbit data source: Space-Track

COSMOS 1275 DEB, 13472 is space debris in LEO originally from a launch on Thu, 04 Jun 1981 UTC launched from the Plesetsk Missile And Space Complex (PKMTR). Debris objects in space refer to the collection of defunct objects orbiting the Earth. Examples of debris include non-operational satellites, rocket bodies, and fragments generated from explosions, collisions, or faulty payload assembly.

Loading next visibility...
Identifier
13472, 1981-053FU
Orbit
LEO
Country
Flag of CISCIS
Related business
Manufacturer
Unknown
Mission
Spacecraft
Bus & Motor
Unknown
Mass
Unknown
Launch date (UTC)
1981-06-04 (45 years ago)
Launch vehicle
Unknown
Launch site
Plesetsk Missile And Space Complex (PKMTR)
Object type
Payload
Rocket body
Debris
Shape & HBR
Unknown shape, 0.1 m
Radar Cross Section
Medium (>0.1 m² and <1 m²)

Expand to show TLE details & history
Last TLE update: 2 days ago

TLE from 2 days ago
0 COSMOS 1275 DEB
1 13472U 81053FU  26171.45248623  .00003648  00000-0  12257-2 0  9995
2 13472  82.8457 328.0875 0012266 268.9182 151.3228 14.36948631249854
Epoch: 2026-06-20T10:51Z
TLE epoch observation values (Epoch: 2026-06-20T10:51:34.810Z)
Latitude
59.6317°
Longitude
-91.17186°
Altitude
786.436 km
Speed
7.462 km/s
True Right ascension
22h 41m 33s
True Declination
59° 28' 55"
Sunlit
Object was in daylight at epoch
Visualization orbit readout
Latitude
Unknown
Longitude
Unknown
Altitude
Unknown
Speed
Unknown
Apparent Right ascension
Unknown
Apparent Declination
Unknown
Sunlit
N/A
Visualization observer readout
Local Sidereal Time
19:08:07
Azimuth
Unknown
Elevation
Unknown
Doppler factor
Unknown
Orbital elements
Apogee altitude
774.428 km
Perigee altitude
756.903 km
Semi-major axis
7,143.802 km
Eccentricity
0.00123
Inclination
82.8457°
RAAN
328.0875°
Arg. of periapsis
268.9182°
True anomaly
151.39016°
Mean anomaly
151.3228°
Eccentric anomaly
151.35649°
Mean motion
3.59459 °/min
Orbital period
100.15 mins
BSTAR
0.0012257
Loading maneuver chart data...
Computing Atmospheric mass density...
Loading historical data...
Loading historical data...
Loading historical data...
Loading historical data...
Loading historical data...
Loading historical data...
Loading historical data...

Documentation

Showing up to 5 results
|